Regional Weather Roundup
Issued by NWS

Home | Current Version | Previous Version | Text Only | Print | Product List | Glossary Off
Versions: 1 2 3 4 5 6 7 8 9 10 11 12 13 14 15 16 17 18 19 20 21 22 23 24 25 26 27 28 29 30 31 32 33 34 35 36 37 38 39 40 41 42 43 44 45 46 47 48 49 50

000
ASUS43 KLOT 251710
RWRIL

ILLINOIS REGIONAL WEATHER ROUNDUP
NATIONAL WEATHER SERVICE CHICAGO/ROMEOVILLE IL
1200 PM CDT SAT OCT 25 2014

NOTE: "FAIR" INDICATES FEW OR NO CLOUDS BELOW 12,000 FEET WITH NO
SIGNIFICANT WEATHER AND/OR OBSTRUCTIONS TO VISIBILITY.

* THESE STATIONS ARE NOT UNDER NWS QUALITY CONTROL. THEY ALSO MAY NOT
  REPORT WEATHER SUCH AS PRECIPITATION OR FOG.

ILZ001-002-007-009-015-016-024-251800-
NORTHWEST ILLINOIS

CITY           SKY/WX    TMP DP  RH WIND       PRES   REMARKS
MOLINE         SUNNY     69  43  38 N12G17    30.04R
STERLING*      SUNNY     72  43  35 NW10G17   30.01S
SAVANNA*       SUNNY     68  35  28 NW9       30.02F
$$

ILZ003-004-008-010-011-017-018-251800-
NORTH CENTRAL ILLINOIS

CITY           SKY/WX    TMP DP  RH WIND       PRES   REMARKS
ROCKFORD       SUNNY     69  40  34 NW12      29.99S
FREEPORT*      SUNNY     65  39  37 NW10G20   30.02R
ROCHELLE*      SUNNY     67  40  36 NW10      30.00R
DE KALB*       SUNNY     66  42  41 NW10G17   29.99S
PERU*          SUNNY     68  48  47 NW13      30.01S
$$

ILZ005-006-012>014-019>023-251800-
NORTHEAST ILLINOIS

CITY           SKY/WX    TMP DP  RH WIND       PRES   REMARKS
CHICAGO-OHARE  MOSUNNY   68  44  42 W15       29.95S
CHICAGO-MIDWAY MOSUNNY   71  44  37 NW15      29.95S
AURORA         SUNNY     68  45  43 N14       29.98S
LANSING*       SUNNY     67  51  55 NW10      29.96S
JOLIET*        SUNNY     67  50  55 W7        29.97S
WAUKEGAN       SUNNY     66  38  35 W12G17    29.93S
DUPAGE AIRPORT SUNNY     69  45  41 NW14      29.96F
KANKAKEE*      SUNNY     67  56  68 NW10      29.98S
WHEELING       SUNNY     69  41  36 NW10      29.96F
MORRIS*        SUNNY     70  50  49 NW7G17    29.97S
ROMEOVILLE*    SUNNY     68  44  41 NW10      29.97F
NORTHERLY ISL    N/A     68  38  33 NW13        N/A
$$

LMZ740>746-251800-
SOUTHERN LAKE MICHIGAN

STATION/POSITION SKY/WX   TEMP    WIND        PRES    VSBY  WAVE
                          AIR SEA DIR/SP/G                  HT/PER
                          (F)     (DEG/KT/KT) (MB)    (MI)  (FT/S)
SOUTHERN BUOY              56 54  280/ 14/ 14 1012.9R         2/ 4
WAUKEGAN HARBOR            65     300/  9/ 14   N/A
HARRISON CRIB              64     300/ 13/ 14   N/A
BURNHAM HARBOR             68     290/  9/ 15   N/A
CALUMET HARBOR             68     300/  6/ 12 1013.0S
MICHIGAN CITY              58     220/ 10/ 11   N/A
$$

ILZ025>027-034>036-040-047-049-050-058-095>099-251800-
WEST-CENTRAL ILLINOIS

CITY           SKY/WX    TMP DP  RH WIND       PRES   REMARKS
QUINCY         SUNNY     71  54  54 CALM      30.05S
GALESBURG*     SUNNY     68  48  49 N9        30.04S
MACOMB*        SUNNY     69  51  51 N8        30.06F
PITTSFIELD*    SUNNY     73  57  55 W3        30.06S
$$

ILZ028>032-037-038-041>044-048-051>054-059>061-251800-
CENTRAL ILLINOIS

CITY           SKY/WX    TMP DP  RH WIND       PRES   REMARKS
PONTIAC        SUNNY     67  57  69 W10G16    30.00S
BLOOMINGTON    SUNNY     67  57  70 NW8       30.03R
DECATUR        SUNNY     71  60  68 W8        30.02S
PEORIA         SUNNY     66  53  63 W7        30.03S
LACON*         SUNNY     67  51  55 NW6       30.00F
LINCOLN*       SUNNY     73  57  57 W5        29.99F
SPRINGFIELD    SUNNY     73  59  61 W7        30.03F
TAYLORVILLE    SUNNY     70  59  68 W7        30.03S
$$

ILZ033-039-045-046-055>057-062-063-251800-
EAST-CENTRAL ILLINOIS

CITY           SKY/WX    TMP DP  RH WIND       PRES   REMARKS
CHAMPAIGN      SUNNY     66  57  72 W10       30.01S
DANVILLE*      SUNNY     69  53  58 W9        29.96S
RANTOUL*       SUNNY     69  56  63 W8        30.00R
MATTOON        SUNNY     71  58  63 NW8       30.00F
PARIS*         SUNNY     73  58  59 NW6       30.00F
$$

ILZ079-100>102-251800-
SOUTHWEST ILLINOIS

CITY           SKY/WX    TMP DP  RH WIND       PRES   REMARKS
ALTON          SUNNY     72  61  68 NW6       30.04F
BELLEVILLE     SUNNY     75  65  71 VRB1      30.03S
CAHOKIA*       SUNNY     75  63  66 VRB6      30.04S
SPARTA*        SUNNY     72  62  72 CALM      30.05R
$$

ILZ064>066-069>071-074>076-080>082-084>086-088>090-092>094-251800-
SOUTH-CENTRAL ILLINOIS

CITY           SKY/WX    TMP DP  RH WIND       PRES   REMARKS
CARBONDALE     SUNNY     74  61  63 CALM      30.03F
CAIRO*         SUNNY     74  60  61 CALM      30.05S
EFFINGHAM*     SUNNY     73  56  54 NW6       30.02F
MARION         SUNNY     73  63  68 W3        30.04F
MT. VERNON     SUNNY     73  61  64 W3        30.03F
CENTRALIA*     SUNNY     71  58  64 W7        30.03F
SALEM*         SUNNY     74  62  66 NW3       30.03F
METROPOLIS*    SUNNY     72  62  71 CALM      30.04F
$$

ILZ067-068-072-073-078-083-087-091-251800-
SOUTHEAST ILLINOIS

CITY           SKY/WX    TMP DP  RH WIND       PRES   REMARKS
LAWRENCEVILLE  SUNNY     72  59  63 W5        30.01F
FLORA*         SUNNY     72  58  61 NW6       30.02F
FAIRFIELD*     SUNNY     73  59  61 W3        30.01F
HARRISBURG*    SUNNY     72  62  69 CALM      30.03F
ROBINSON*      SUNNY     73  58  59 W3        30.02S
CARMI*         SUNNY     75  63  65 W3        30.00F
$$

ABBREVIATIONS USED IN REMARKS
   TC - TEMPERATURE IN CELSIUS
  WCI - WIND CHILL INDEX
   HX - HEAT INDEX
  VSB - VISIBILITY
$$




USA.gov is the U.S. government's official web portal to all federal, state and local government web resources and services.